Regional Weather Roundup
Issued by NWS New Orleans/Baton Rouge, LA

Home | Current Version | Previous Version | Text Only | Print | Product List | Glossary On
Versions: 1 2 3 4 5 6 7 8 9 10 11 12 13 14 15 16 17 18 19 20 21 22 23 24 25 26 27 28 29 30 31 32 33 34 35 36 37 38 39 40 41 42 43 44 45 46 47 48 49 50
000
ASUS44 KLIX 291310
RWRLIX
NEW ORLEANS REGIONAL WEATHER ROUNDUP
NATIONAL WEATHER SERVICE NEW ORLEANS LA
700 AM CST MON DEC 29 2014

NOTE: "FAIR" INDICATES FEW OR NO CLOUDS BELOW 12,000 FEET WITH NO
      SIGNIFICANT WEATHER AND/OR OBSTRUCTIONS TO VISIBILITY.
      SKY/WX - SKY CONDITION AND SIGNIFICANT WEATHER.
      TMP - AIR TEMPERATURE.     DP    - DEWPOINT TEMPERATURE.
      RH  - RELATIVE HUMIDITY.   PRES  - PRESSURE.
      HI  - HEAT INDEX.          WCI   - WIND CHILL INDEX.

*  THESE STATIONS ARE NOT NWS OR FAA STATIONS AND ARE NOT UNDER
   NWS QUALITY CONTROL.

LAZ038-040-048-061>063-065>067-069-291400-
SOUTHEAST LOUISIANA

CITY           SKY/WX    TMP DP  RH WIND       PRES   REMARKS
N.O. AUDUBON   NOT AVBL
N.O. INTL ARPT CLOUDY    55  53  93 N5        30.13R
N.O. LAKEFRONT CLOUDY    57  53  86 NW7       30.13R
N.O. DOWNTOWN* CLOUDY    55  52  88 NW3       30.13R
SLIDELL        CLOUDY    54  52  93 NW5       30.12R
BATON ROUGE    CLOUDY    50  48  93 N3        30.12S
BOOTHVILLE     CLOUDY    59  58  96 NW5       30.10R
BELLE CHASSE   LGT RAIN  56  55  97 CALM      30.12R VSB 1/4
BOGALUSA*        N/A     53  50  90 N6        30.15R
GALLIANO*      CLOUDY    55  55  99 MISG      30.12R FOG
NEW ROADS*     CLOUDY    47  47  98 N3        30.14R FOG
GONZALES*      CLOUDY    52  52 100 N3        30.12R
HAMMOND*       NOT AVBL
HOUMA*         FOG       55  55 100 CALM      30.12R VSB 3/4
PORT FOURCHON* CLOUDY    61  59  94 N6        30.14R FOG

$$

MSZ070-080>082-291400-
SOUTHERN MISSISSIPPI

CITY           SKY/WX    TMP DP  RH WIND       PRES   REMARKS
MCCOMB         CLOUDY    48  46  93 NE3       30.12S
GULFPORT       CLOUDY    56  55  97 NW7       30.10R
BILOXI         CLOUDY    57  57 100 N5        30.11R
PASCAGOULA     CLOUDY    57  56  96 CALM      30.11R

$$

COASTAL OBSERVATIONS
LAKE AND NEARSHORE STATIONS

STATION/POSITION TIME  TEMP    WIND        PRES    WAVE
                       AIR SEA DIR/SP/G            HT/PER
                 (UTC) (F)     (DEG/KT/KT) (MB)    (FT/S)
PASCAGOULA       1300   58     320/  4/  5 1018.8
WAVELAND YACHT   1300   56     340/  7/  8 1018.6
GRAND ISLE       1300   61 63  360/  6/  8 1019.5
SOUTHWEST PASS   1300   62                 1018.7
NEW CANAL        1300   55 58   10/  5/  6 1020.4
SHELL BEACH      1300   57 61  320/  9/ 10 1019.6

OFFSHORE STATIONS

STATION/POSITION TIME  TEMP    WIND        PRES    WAVE
                       AIR SEA DIR/SP/G            HT/PER
                 (UTC) (F)     (DEG/KT/KT) (MB)    (FT/S)
64 S DAUPHIN ISL 1300   64 73   60/ 10/ 12 1018.5    4/ 5

$$




USA.gov is the U.S. government's official web portal to all federal, state and local government web resources and services.